User: anonymous   Login
Location: Unspecified
(40.8819°N, 0.0000°E)
Time: 23:48:40
(UTC+00:00)
Language:

PCSat - Orbit

View from above orbital plane
View from above orbital plane
View from above satellite
View from above satellite

Ground track
Ground track

The orbit data is extracted from the following two-line orbital elements,

1 26931U 01043C   24114.34999691  .00000825  00000-0  34343-3 0  9996
2 26931  67.0489 113.2176 0006291 281.8903  78.1493 14.31187713178102
Epoch (UTC): 23 April 2024 08:23:59
Eccentricity: 0.0006291
inclination: 67.0489°
perigee height: 783 km
apogee height: 792 km
right ascension of ascending node: 113.2176°
argument of perigee: 281.8903°
revolutions per day: 14.31187713
mean anomaly at epoch: 78.1493°
orbit number at epoch: 17810

The dashed part of the orbit path shows where the satellite is in the earth's shadow,  

DLR